,,,PA_Meas_PMT16A,,PR_Meas_QMR101_102,,RH_Meas_QMH101,,SR_Meas_QMS101,,TA_Meas_QMH101,,GenWind,,GenWind,
date,time,status,PA,status,PR,status,RH,status,SR,status,TA,status,DirAvg,status,SpdAvg,
2012-06-11, 00:00:04,VALID,1000.74,VALID,0,VALID,95.3092,VALID,0,VALID,23.6622,VALID,48,VALID,0,
2012-06-11, 00:01:04,VALID,1000.75,VALID,0,VALID,95.3168,VALID,0,VALID,23.6622,VALID,48,VALID,0,
2012-06-11, 00:02:04,VALID,1000.72,VALID,0,VALID,95.3474,VALID,0,VALID,23.6622,VALID,48,VALID,0,
2012-06-11, 00:03:04,VALID,1000.72,VALID,0,VALID,95.3626,VALID,0,VALID,23.6409,VALID,48,VALID,0,
2012-06-11, 00:04:04,VALID,1000.75,VALID,0,VALID,95.3931,VALID,0,VALID,23.6622,VALID,48,VALID,0,
2012-06-11, 00:05:04,VALID,1000.73,VALID,0,VALID,95.3779,VALID,0,VALID,23.6817,VALID,48,VALID,0,
2012-06-11, 00:06:04,VALID,1000.75,VALID,0,VALID,95.3931,VALID,0,VALID,23.6817,VALID,48,VALID,0,
2012-06-11, 00:07:04,VALID,1000.74,VALID,0,VALID,95.3931,VALID,0,VALID,23.7207,VALID,48,VALID,0,
2012-06-11, 00:08:04,VALID,1000.75,VALID,0,VALID,95.4237,VALID,0,VALID,23.7207,VALID,48,VALID,0,
2012-06-11, 00:09:04,VALID,1000.78,VALID,0,VALID,95.4389,VALID,0,VALID,23.7207,VALID,48,VALID,0,
2012-06-11, 00:10:04,VALID,1000.79,VALID,0,VALID,95.4389,VALID,0,VALID,23.7189,VALID,48,VALID,0,
2012-06-11, 00:11:04,VALID,1000.82,VALID,0,VALID,95.4542,VALID,0,VALID,23.7793,VALID,48,VALID,0.546875,
2012-06-11, 00:12:04,VALID,1000.85,VALID,0,VALID,95.4618,VALID,0,VALID,23.8378,VALID,220,VALID,1.14648,
2012-06-11, 00:13:04,VALID,1000.89,VALID,0,VALID,95.4465,VALID,0,VALID,23.8963,VALID,220,VALID,1.05234,
2012-06-11, 00:14:04,VALID,1000.91,VALID,0,VALID,95.3931,VALID,0,VALID,23.9744,VALID,224,VALID,1.35234,
2012-06-11, 00:15:04,VALID,1000.88,VALID,0,VALID,95.3245,VALID,0,VALID,23.9939,VALID,214,VALID,0.698438,
2012-06-11, 00:16:04,VALID,1000.87,VALID,0,VALID,95.2329,VALID,0,VALID,23.9921,VALID,213,VALID,1.0418,
2012-06-11, 00:17:04,VALID,1000.91,VALID,0,VALID,95.1337,VALID,0,VALID,23.9939,VALID,213,VALID,1.18398,
2012-06-11, 00:18:04,VALID,1000.88,VALID,0,VALID,95.0193,VALID,0,VALID,23.9939,VALID,199,VALID,1.50117,
2012-06-11, 00:19:04,VALID,1000.9,VALID,0,VALID,94.9811,VALID,0,VALID,24.0525,VALID,215,VALID,1.87227,
2012-06-11, 00:20:04,VALID,1000.93,VALID,0,VALID,94.8285,VALID,0,VALID,24.1128,VALID,248,VALID,1.51094,
2012-06-11, 00:21:04,VALID,1000.93,VALID,0,VALID,94.6607,VALID,0,VALID,24.1305,VALID,273,VALID,1.84453,
2012-06-11, 00:22:04,VALID,1000.95,VALID,0,VALID,94.4471,VALID,0,VALID,24.1891,VALID,252,VALID,1.39219,
2012-06-11, 00:23:04,VALID,1000.91,VALID,0,VALID,94.1495,VALID,0,VALID,24.2281,VALID,230,VALID,2.63164,
2012-06-11, 00:24:04,VALID,1000.94,VALID,0,VALID,93.7375,VALID,0,VALID,24.2866,VALID,253,VALID,3.06367,
2012-06-11, 00:25:04,VALID,1000.96,VALID,0,VALID,93.2263,VALID,0,VALID,24.3647,VALID,264,VALID,2.22461,
2012-06-11, 00:26:04,VALID,1000.94,VALID,0,VALID,92.9135,VALID,0,VALID,24.4037,VALID,253,VALID,2.15781,
2012-06-11, 00:27:04,VALID,1000.92,VALID,0,VALID,92.7304,VALID,0,VALID,24.4233,VALID,221,VALID,2.27031,
2012-06-11, 00:28:04,VALID,1000.93,VALID,0,VALID,92.6999,VALID,0,VALID,24.4233,VALID,231,VALID,1.92344,
2012-06-11, 00:29:04,VALID,1000.91,VALID,0,VALID,92.7457,VALID,0,VALID,24.4428,VALID,221,VALID,1.38398,
2012-06-11, 00:30:04,VALID,1000.95,VALID,0,VALID,92.9288,VALID,0,VALID,24.4233,VALID,243,VALID,1.99453,
2012-06-11, 00:31:04,VALID,1000.91,VALID,0,VALID,92.9593,VALID,0,VALID,24.4233,VALID,229,VALID,2.19336,
2012-06-11, 00:32:04,VALID,1000.91,VALID,0,VALID,93.0356,VALID,0,VALID,24.4233,VALID,236,VALID,1.9543,
2012-06-11, 00:33:04,VALID,1000.86,VALID,0,VALID,93.1653,VALID,0,VALID,24.4233,VALID,220,VALID,1.29336,
2012-06-11, 00:34:04,VALID,1000.79,VALID,0,VALID,93.2874,VALID,0,VALID,24.4037,VALID,204,VALID,3.37188,
2012-06-11, 00:35:04,VALID,1000.81,VALID,0,VALID,93.4247,VALID,0,VALID,24.3647,VALID,251,VALID,1.70703,
2012-06-11, 00:36:04,VALID,1000.78,VALID,0,VALID,93.6383,VALID,0,VALID,24.3452,VALID,205,VALID,2.12148,
2012-06-11, 00:37:04,VALID,1000.77,VALID,0,VALID,93.8825,VALID,0,VALID,24.3062,VALID,241,VALID,2.25078,
2012-06-11, 00:38:04,VALID,1000.79,VALID,0.5,VALID,94.1571,VALID,0,VALID,24.2476,VALID,244,VALID,1.84961,
2012-06-11, 00:39:04,VALID,1000.79,VALID,0.5,VALID,94.4471,VALID,0,VALID,24.1891,VALID,247,VALID,1.98828,
2012-06-11, 00:40:04,VALID,1000.75,VALID,0,VALID,94.7446,VALID,0,VALID,24.15,VALID,248,VALID,3.13242,
2012-06-11, 00:41:04,VALID,1000.76,VALID,1,VALID,94.9735,VALID,0,VALID,24.0915,VALID,240,VALID,1.76484,
2012-06-11, 00:42:04,VALID,1000.76,VALID,0.5,VALID,95.1337,VALID,0,VALID,24.0933,VALID,249,VALID,2.41055,
2012-06-11, 00:43:04,VALID,1000.77,VALID,1,VALID,95.2787,VALID,0,VALID,24.0543,VALID,269,VALID,0.965625,
2012-06-11, 00:44:04,VALID,1000.77,VALID,0.5,VALID,95.355,VALID,0,VALID,24.0348,VALID,246,VALID,1.41523,
2012-06-11, 00:45:04,VALID,1000.76,VALID,1,VALID,95.4237,VALID,0,VALID,24.0134,VALID,236,VALID,2.26445,
2012-06-11, 00:46:04,VALID,1000.78,VALID,1,VALID,95.4923,VALID,0,VALID,23.9939,VALID,250,VALID,2.41797,
2012-06-11, 00:47:04,VALID,1000.82,VALID,1,VALID,95.5305,VALID,0,VALID,23.9744,VALID,249,VALID,1.26523,
2012-06-11, 00:48:04,VALID,1000.81,VALID,1,VALID,95.5457,VALID,0,VALID,23.9744,VALID,259,VALID,1.92109,
2012-06-11, 00:49:04,VALID,1000.83,VALID,1,VALID,95.5686,VALID,0,VALID,23.9531,VALID,272,VALID,1.81914,
2012-06-11, 00:50:04,VALID,1000.87,VALID,0.5,VALID,95.6068,VALID,0,VALID,23.9336,VALID,261,VALID,2.04297,
2012-06-11, 00:51:04,VALID,1000.85,VALID,0.5,VALID,95.6144,VALID,0,VALID,23.8927,VALID,243,VALID,1.0168,
2012-06-11, 00:52:04,VALID,1000.87,VALID,0.5,VALID,95.622,VALID,0,VALID,23.9159,VALID,277,VALID,1.79922,
2012-06-11, 00:53:04,VALID,1000.87,VALID,0.5,VALID,95.6297,VALID,0,VALID,23.875,VALID,260,VALID,2.14375,
2012-06-11, 00:54:04,VALID,1000.84,VALID,0.5,VALID,95.6297,VALID,0,VALID,23.8555,VALID,281,VALID,1.02305,
2012-06-11, 00:55:04,VALID,1000.85,VALID,0,VALID,95.6373,VALID,0,VALID,23.8555,VALID,282,VALID,1.94219,
2012-06-11, 00:56:04,VALID,1000.86,VALID,0.5,VALID,95.6449,VALID,0,VALID,23.836,VALID,278,VALID,0.925391,
2012-06-11, 00:57:04,VALID,1000.85,VALID,0.5,VALID,95.6297,VALID,0,VALID,23.8555,VALID,260,VALID,1.4332,
2012-06-11, 00:58:04,VALID,1000.87,VALID,0,VALID,95.6373,VALID,0,VALID,23.836,VALID,272,VALID,1.25078,
2012-06-11, 00:59:04,VALID,1000.89,VALID,0,VALID,95.6373,VALID,0.104696,VALID,23.836,VALID,273,VALID,1.04805,
2012-06-11, 01:00:04,VALID,1000.86,VALID,0.5,VALID,95.6449,VALID,0,VALID,23.8165,VALID,269,VALID,0.694141,
2012-06-11, 01:01:04,VALID,1000.88,VALID,0,VALID,95.6297,VALID,0,VALID,23.836,VALID,261,VALID,1.18555,
2012-06-11, 01:02:04,VALID,1000.89,VALID,0,VALID,95.6297,VALID,0.104696,VALID,23.836,VALID,243,VALID,1.08086,
2012-06-11, 01:03:04,VALID,1000.81,VALID,0,VALID,95.6297,VALID,0,VALID,23.8165,VALID,307,VALID,1.44766,
2012-06-11, 01:04:04,VALID,1000.81,VALID,0,VALID,95.6373,VALID,0,VALID,23.7988,VALID,273,VALID,0.770703,
2012-06-11, 01:05:04,VALID,1000.8,VALID,0,VALID,95.622,VALID,0,VALID,23.7988,VALID,285,VALID,0.75,
2012-06-11, 01:06:04,VALID,1000.78,VALID,0,VALID,95.622,VALID,0,VALID,23.8183,VALID,236,VALID,0.341016,
2012-06-11, 01:07:04,VALID,1000.77,VALID,0,VALID,95.6068,VALID,0,VALID,23.8183,VALID,274,VALID,1.44375,
2012-06-11, 01:08:04,VALID,1000.79,VALID,0,VALID,95.6144,VALID,0,VALID,23.7988,VALID,299,VALID,1.27148,
2012-06-11, 01:09:04,VALID,1000.72,VALID,0,VALID,95.622,VALID,0,VALID,23.7793,VALID,268,VALID,1.13906,
2012-06-11, 01:10:04,VALID,1000.72,VALID,0.5,VALID,95.6373,VALID,0,VALID,23.7579,VALID,280,VALID,0.692578,
2012-06-11, 01:11:04,VALID,1000.68,VALID,0,VALID,95.6144,VALID,0,VALID,23.7793,VALID,210,VALID,1.37617,
2012-06-11, 01:12:04,VALID,1000.68,VALID,0,VALID,95.6144,VALID,0,VALID,23.7597,VALID,259,VALID,0.599219,
2012-06-11, 01:13:04,VALID,1000.67,VALID,0,VALID,95.6068,VALID,0,VALID,23.7793,VALID,296,VALID,0.865625,
2012-06-11, 01:14:04,VALID,1000.69,VALID,0,VALID,95.622,VALID,0,VALID,23.7597,VALID,237,VALID,0.764453,
2012-06-11, 01:15:04,VALID,1000.65,VALID,0,VALID,95.6068,VALID,0,VALID,23.7384,VALID,235,VALID,0.832812,
2012-06-11, 01:16:04,VALID,1000.65,VALID,0,VALID,95.5991,VALID,0,VALID,23.7793,VALID,235,VALID,0.7625,
2012-06-11, 01:17:04,VALID,1000.64,VALID,0,VALID,95.6144,VALID,0,VALID,23.7597,VALID,199,VALID,0.648828,
2012-06-11, 01:18:04,VALID,1000.61,VALID,0,VALID,95.6068,VALID,0,VALID,23.7384,VALID,250,VALID,0.402734,
2012-06-11, 01:19:04,VALID,1000.63,VALID,0,VALID,95.5915,VALID,0,VALID,23.7384,VALID,244,VALID,0.655859,
2012-06-11, 01:20:04,VALID,1000.66,VALID,0,VALID,95.5915,VALID,0,VALID,23.7384,VALID,264,VALID,0.295312,
2012-06-11, 01:21:04,VALID,1000.63,VALID,0,VALID,95.5839,VALID,0,VALID,23.7384,VALID,264,VALID,0.183203,
2012-06-11, 01:22:04,VALID,1000.64,VALID,0,VALID,95.6144,VALID,0,VALID,23.7189,VALID,313,VALID,0.885156,
2012-06-11, 01:23:04,VALID,1000.65,VALID,0,VALID,95.5762,VALID,0,VALID,23.7402,VALID,275,VALID,0.173828,
2012-06-11, 01:24:04,VALID,1000.67,VALID,0,VALID,95.5762,VALID,0,VALID,23.7616,VALID,224,VALID,0.448828,
2012-06-11, 01:25:04,VALID,1000.65,VALID,0,VALID,95.5534,VALID,0,VALID,23.7597,VALID,284,VALID,0.495703,
2012-06-11, 01:26:04,VALID,1000.64,VALID,0,VALID,95.5457,VALID,0,VALID,23.7597,VALID,284,VALID,0.382422,
2012-06-11, 01:27:04,VALID,1000.58,VALID,0,VALID,95.5534,VALID,0,VALID,23.7597,VALID,284,VALID,0.558203,
2012-06-11, 01:28:04,VALID,1000.56,VALID,0,VALID,95.561,VALID,0,VALID,23.7597,VALID,284,VALID,0.395703,
2012-06-11, 01:29:04,VALID,1000.52,VALID,0,VALID,95.5457,VALID,0,VALID,23.7793,VALID,284,VALID,0.03125,
2012-06-11, 01:30:04,VALID,1000.53,VALID,0,VALID,95.5457,VALID,0,VALID,23.7597,VALID,259,VALID,0.38125,
2012-06-11, 01:31:04,VALID,1000.52,VALID,0,VALID,95.5305,VALID,0,VALID,23.7597,VALID,257,VALID,0.192188,
2012-06-11, 01:32:04,VALID,1000.5,VALID,0,VALID,95.5381,VALID,0,VALID,23.7811,VALID,257,VALID,0.225,
2012-06-11, 01:33:04,VALID,1000.51,VALID,0,VALID,95.5228,VALID,0,VALID,23.7597,VALID,257,VALID,0.287109,
2012-06-11, 01:34:04,VALID,1000.52,VALID,0,VALID,95.5152,VALID,0,VALID,23.7597,VALID,283,VALID,0.417188,
2012-06-11, 01:35:04,VALID,1000.5,VALID,0,VALID,95.5152,VALID,0,VALID,23.7793,VALID,264,VALID,0.35,
2012-06-11, 01:36:04,VALID,1000.5,VALID,0,VALID,95.5152,VALID,0,VALID,23.7793,VALID,264,VALID,0.0890625,
2012-06-11, 01:37:04,VALID,1000.48,VALID,0,VALID,95.5076,VALID,0,VALID,23.7793,VALID,264,VALID,0,
2012-06-11, 01:38:04,VALID,1000.52,VALID,0,VALID,95.5076,VALID,0,VALID,23.7988,VALID,264,VALID,0.134375,
2012-06-11, 01:39:04,VALID,1000.48,VALID,0,VALID,95.5076,VALID,0,VALID,23.7579,VALID,264,VALID,0,
2012-06-11, 01:40:04,VALID,1000.48,VALID,0,VALID,95.5,VALID,0,VALID,23.7793,VALID,264,VALID,0,
2012-06-11, 01:41:04,VALID,1000.46,VALID,0,VALID,95.5,VALID,0,VALID,23.7793,VALID,264,VALID,0,
2012-06-11, 01:42:04,VALID,1000.46,VALID,0,VALID,95.4923,VALID,0,VALID,23.7793,VALID,264,VALID,0.0738281,
2012-06-11, 01:43:04,VALID,1000.42,VALID,0,VALID,95.4923,VALID,0,VALID,23.7793,VALID,264,VALID,0.189063,
2012-06-11, 01:44:04,VALID,1000.39,VALID,0,VALID,95.4923,VALID,0,VALID,23.7597,VALID,264,VALID,0,
2012-06-11, 01:45:04,VALID,1000.37,VALID,0,VALID,95.4847,VALID,0,VALID,23.7793,VALID,264,VALID,0.337891,
2012-06-11, 01:46:04,VALID,1000.33,VALID,0,VALID,95.4771,VALID,0,VALID,23.7793,VALID,264,VALID,0.444922,
2012-06-11, 01:47:04,VALID,1000.27,VALID,0,VALID,95.4847,VALID,0,VALID,23.7988,VALID,262,VALID,0.462109,
2012-06-11, 01:48:04,VALID,1000.26,VALID,0,VALID,95.5,VALID,0,VALID,23.7597,VALID,262,VALID,0.369141,
2012-06-11, 01:49:04,VALID,1000.19,VALID,0,VALID,95.4771,VALID,0,VALID,23.7793,VALID,262,VALID,0.436328,
2012-06-11, 01:50:04,VALID,1000.14,VALID,0,VALID,95.4847,VALID,0,VALID,23.7793,VALID,262,VALID,0.296094,
2012-06-11, 01:51:04,VALID,1000.14,VALID,0,VALID,95.4465,VALID,0,VALID,23.7793,VALID,262,VALID,0.375391,
2012-06-11, 01:52:04,VALID,1000.09,VALID,0,VALID,95.4618,VALID,0,VALID,23.7793,VALID,262,VALID,0.363672,
2012-06-11, 01:53:04,VALID,1000.08,VALID,0,VALID,95.4542,VALID,0,VALID,23.7988,VALID,262,VALID,0.257031,
2012-06-11, 01:54:04,VALID,1000.05,VALID,0,VALID,95.4771,VALID,0,VALID,23.7793,VALID,246,VALID,0.412891,
2012-06-11, 01:55:04,VALID,1000.02,VALID,0,VALID,95.4465,VALID,0,VALID,23.7597,VALID,178,VALID,0.395312,
2012-06-11, 01:56:04,VALID,1000,VALID,0,VALID,95.4618,VALID,0,VALID,23.7793,VALID,178,VALID,0.443359,
2012-06-11, 01:57:04,VALID,999.995,VALID,0,VALID,95.4542,VALID,0,VALID,23.7579,VALID,91,VALID,0.429297,
2012-06-11, 01:58:04,VALID,1000.01,VALID,0,VALID,95.4771,VALID,0,VALID,23.7597,VALID,91,VALID,0.379687,
2012-06-11, 01:59:04,VALID,999.978,VALID,0,VALID,95.4694,VALID,0,VALID,23.7402,VALID,63,VALID,0.717188,
2012-06-11, 02:00:04,VALID,999.96,VALID,0,VALID,95.4771,VALID,0,VALID,23.7597,VALID,29,VALID,0.512891,
2012-06-11, 02:01:04,VALID,999.974,VALID,0,VALID,95.4771,VALID,0,VALID,23.7189,VALID,30,VALID,0.812891,
2012-06-11, 02:02:04,VALID,999.975,VALID,0,VALID,95.4923,VALID,0,VALID,23.7207,VALID,30,VALID,0.894922,
2012-06-11, 02:03:04,VALID,999.964,VALID,0,VALID,95.4923,VALID,0,VALID,23.7207,VALID,30,VALID,0.695703,
2012-06-11, 02:04:04,VALID,999.937,VALID,0,VALID,95.4923,VALID,0,VALID,23.7207,VALID,30,VALID,0.458984,
2012-06-11, 02:05:04,VALID,999.905,VALID,0,VALID,95.4694,VALID,0,VALID,23.7207,VALID,30,VALID,0.257813,
2012-06-11, 02:06:04,VALID,999.914,VALID,0,VALID,95.4847,VALID,0,VALID,23.7207,VALID,30,VALID,0.117969,
2012-06-11, 02:07:04,VALID,999.852,VALID,0,VALID,95.5,VALID,0,VALID,23.7207,VALID,30,VALID,0,
2012-06-11, 02:08:04,VALID,999.819,VALID,0,VALID,95.5076,VALID,0,VALID,23.7012,VALID,30,VALID,0.0902344,
2012-06-11, 02:09:04,VALID,999.795,VALID,0,VALID,95.4847,VALID,0,VALID,23.7012,VALID,30,VALID,0.622656,
2012-06-11, 02:10:04,VALID,999.774,VALID,0,VALID,95.4771,VALID,0,VALID,23.7207,VALID,35,VALID,0.741016,
2012-06-11, 02:11:04,VALID,999.759,VALID,0,VALID,95.4771,VALID,0,VALID,23.7207,VALID,41,VALID,0.669531,
2012-06-11, 02:12:04,VALID,999.717,VALID,0,VALID,95.4771,VALID,0,VALID,23.7207,VALID,44,VALID,1.10664,
2012-06-11, 02:13:04,VALID,999.725,VALID,0,VALID,95.4771,VALID,0,VALID,23.7402,VALID,49,VALID,1.20469,
2012-06-11, 02:14:04,VALID,999.717,VALID,0,VALID,95.4618,VALID,0,VALID,23.7207,VALID,52,VALID,0.882813,
2012-06-11, 02:15:04,VALID,999.687,VALID,0,VALID,95.4694,VALID,0,VALID,23.7207,VALID,61,VALID,0.857031,
2012-06-11, 02:16:04,VALID,999.695,VALID,0,VALID,95.5076,VALID,0,VALID,23.6994,VALID,61,VALID,0.648438,
2012-06-11, 02:17:04,VALID,999.675,VALID,0,VALID,95.5,VALID,0,VALID,23.7207,VALID,61,VALID,0.465625,
2012-06-11, 02:18:04,VALID,999.653,VALID,0,VALID,95.5,VALID,0,VALID,23.7012,VALID,61,VALID,0.495703,
2012-06-11, 02:19:04,VALID,999.618,VALID,0,VALID,95.5,VALID,0,VALID,23.7012,VALID,61,VALID,0.652344,
2012-06-11, 02:20:04,VALID,999.586,VALID,0,VALID,95.5,VALID,0,VALID,23.7012,VALID,86,VALID,0.823438,
2012-06-11, 02:21:04,VALID,999.555,VALID,0,VALID,95.5,VALID,0,VALID,23.7012,VALID,94,VALID,0.873047,
2012-06-11, 02:22:04,VALID,999.527,VALID,0,VALID,95.4923,VALID,0,VALID,23.7012,VALID,94,VALID,0.822656,
2012-06-11, 02:23:04,VALID,999.481,VALID,0,VALID,95.5076,VALID,0,VALID,23.7012,VALID,94,VALID,1.00508,
2012-06-11, 02:24:04,VALID,999.455,VALID,0,VALID,95.5,VALID,0,VALID,23.7012,VALID,94,VALID,0.923828,
2012-06-11, 02:25:04,VALID,999.411,VALID,0,VALID,95.4847,VALID,0,VALID,23.7012,VALID,94,VALID,0.673047,
2012-06-11, 02:26:04,VALID,999.411,VALID,0,VALID,95.4847,VALID,0,VALID,23.7012,VALID,94,VALID,0.915625,
2012-06-11, 02:27:04,VALID,999.366,VALID,0,VALID,95.5076,VALID,0,VALID,23.7012,VALID,97,VALID,1.04102,
2012-06-11, 02:28:04,VALID,999.373,VALID,0,VALID,95.4923,VALID,0,VALID,23.7012,VALID,104,VALID,0.728516,
2012-06-11, 02:29:04,VALID,999.328,VALID,0,VALID,95.4923,VALID,0,VALID,23.6799,VALID,106,VALID,0.986719,
2012-06-11, 02:30:04,VALID,999.322,VALID,0,VALID,95.4847,VALID,0,VALID,23.6817,VALID,110,VALID,0.867969,
2012-06-11, 02:31:04,VALID,999.271,VALID,0,VALID,95.5,VALID,0,VALID,23.6817,VALID,116,VALID,1.1332,
2012-06-11, 02:32:04,VALID,999.233,VALID,0,VALID,95.4694,VALID,0,VALID,23.7012,VALID,114,VALID,1.10547,
2012-06-11, 02:33:04,VALID,999.245,VALID,0,VALID,95.4847,VALID,0,VALID,23.7207,VALID,116,VALID,0.869922,
2012-06-11, 02:34:04,VALID,999.227,VALID,0,VALID,95.4847,VALID,0,VALID,23.7012,VALID,118,VALID,0.78125,
2012-06-11, 02:35:04,VALID,999.233,VALID,0,VALID,95.4771,VALID,0,VALID,23.6817,VALID,110,VALID,1.18594,
2012-06-11, 02:36:04,VALID,999.209,VALID,0,VALID,95.4847,VALID,0,VALID,23.6817,VALID,106,VALID,1.20039,
2012-06-11, 02:37:04,VALID,999.245,VALID,0,VALID,95.4923,VALID,0,VALID,23.6835,VALID,125,VALID,1.25977,
2012-06-11, 02:38:04,VALID,999.237,VALID,0,VALID,95.5076,VALID,0,VALID,23.6427,VALID,114,VALID,1.49219,
2012-06-11, 02:39:04,VALID,999.229,VALID,0,VALID,95.5,VALID,0,VALID,23.6427,VALID,125,VALID,1.42383,
2012-06-11, 02:40:04,VALID,999.205,VALID,0,VALID,95.5076,VALID,0,VALID,23.6232,VALID,122,VALID,1.21172,
2012-06-11, 02:41:04,VALID,999.242,VALID,0,VALID,95.5076,VALID,0,VALID,23.6232,VALID,121,VALID,1.92734,
2012-06-11, 02:42:04,VALID,999.215,VALID,0,VALID,95.5305,VALID,0,VALID,23.6036,VALID,127,VALID,1.80625,
2012-06-11, 02:43:04,VALID,999.18,VALID,0,VALID,95.5152,VALID,0,VALID,23.5841,VALID,132,VALID,1.44922,
2012-06-11, 02:44:04,VALID,999.181,VALID,0,VALID,95.5534,VALID,0,VALID,23.5646,VALID,123,VALID,1.43516,
2012-06-11, 02:45:04,VALID,999.183,VALID,0,VALID,95.5305,VALID,0,VALID,23.5646,VALID,136,VALID,1.35117,
2012-06-11, 02:46:04,VALID,999.169,VALID,0,VALID,95.5457,VALID,0,VALID,23.5646,VALID,128,VALID,1.14648,
2012-06-11, 02:47:04,VALID,999.177,VALID,0,VALID,95.5534,VALID,0,VALID,23.5646,VALID,137,VALID,1.28359,
2012-06-11, 02:48:04,VALID,999.164,VALID,0,VALID,95.5457,VALID,0,VALID,23.5451,VALID,140,VALID,0.980469,
2012-06-11, 02:49:04,VALID,999.182,VALID,0,VALID,95.5686,VALID,0,VALID,23.5256,VALID,135,VALID,1.30859,
2012-06-11, 02:50:04,VALID,999.151,VALID,0,VALID,95.561,VALID,0,VALID,23.5043,VALID,125,VALID,1.91719,
2012-06-11, 02:51:04,VALID,999.181,VALID,0,VALID,95.5686,VALID,0,VALID,23.5256,VALID,124,VALID,1.52695,
2012-06-11, 02:52:04,VALID,999.162,VALID,0,VALID,95.5991,VALID,0,VALID,23.5061,VALID,123,VALID,1.33789,
2012-06-11, 02:53:04,VALID,999.188,VALID,0,VALID,95.6068,VALID,0,VALID,23.4866,VALID,119,VALID,1.02969,
2012-06-11, 02:54:04,VALID,999.172,VALID,0,VALID,95.6144,VALID,0,VALID,23.4866,VALID,115,VALID,0.685547,
2012-06-11, 02:55:04,VALID,999.195,VALID,0,VALID,95.6144,VALID,0,VALID,23.4866,VALID,115,VALID,0.435547,
2012-06-11, 02:56:04,VALID,999.161,VALID,0,VALID,95.622,VALID,0,VALID,23.4475,VALID,115,VALID,0,
2012-06-11, 02:57:04,VALID,999.154,VALID,0,VALID,95.6449,VALID,0,VALID,23.4475,VALID,106,VALID,0.381641,
2012-06-11, 02:58:04,VALID,999.138,VALID,0,VALID,95.6525,VALID,0,VALID,23.428,VALID,106,VALID,0.675391,
2012-06-11, 02:59:04,VALID,999.114,VALID,0,VALID,95.6449,VALID,0,VALID,23.428,VALID,106,VALID,0.452734,
2012-06-11, 03:00:04,VALID,999.067,VALID,0,VALID,95.6297,VALID,0,VALID,23.4085,VALID,106,VALID,0.351563,
2012-06-11, 03:01:04,VALID,999.049,VALID,0,VALID,95.6373,VALID,0,VALID,23.4085,VALID,106,VALID,0.439844,
2012-06-11, 03:02:04,VALID,999.022,VALID,0,VALID,95.6373,VALID,0,VALID,23.4085,VALID,106,VALID,0.440234,
2012-06-11, 03:03:04,VALID,998.987,VALID,0,VALID,95.6449,VALID,0,VALID,23.3677,VALID,106,VALID,0.521094,
2012-06-11, 03:04:04,VALID,998.985,VALID,0,VALID,95.6373,VALID,0,VALID,23.389,VALID,106,VALID,0.636719,
2012-06-11, 03:05:04,VALID,998.995,VALID,0,VALID,95.6449,VALID,0,VALID,23.389,VALID,58,VALID,0.776172,
2012-06-11, 03:06:04,VALID,998.996,VALID,0,VALID,95.622,VALID,0,VALID,23.3695,VALID,54,VALID,0.653125,
2012-06-11, 03:07:04,VALID,999.051,VALID,0,VALID,95.6831,VALID,0,VALID,23.35,VALID,51,VALID,0.599609,
2012-06-11, 03:08:04,VALID,999.085,VALID,0,VALID,95.6449,VALID,0,VALID,23.3305,VALID,50,VALID,0.332812,
2012-06-11, 03:09:04,VALID,999.056,VALID,0,VALID,95.6297,VALID,0,VALID,23.3305,VALID,50,VALID,0.359375,
2012-06-11, 03:10:04,VALID,999.076,VALID,0,VALID,95.6525,VALID,0,VALID,23.3305,VALID,50,VALID,0.319531,
2012-06-11, 03:11:04,VALID,999.087,VALID,0,VALID,95.6373,VALID,0,VALID,23.2915,VALID,50,VALID,0.359375,
2012-06-11, 03:12:04,VALID,999.04,VALID,0,VALID,95.6525,VALID,0,VALID,23.2915,VALID,50,VALID,0.261719,
2012-06-11, 03:13:04,VALID,999.027,VALID,0,VALID,95.6602,VALID,0,VALID,23.2524,VALID,50,VALID,0.00234375,
2012-06-11, 03:14:04,VALID,998.987,VALID,0,VALID,95.6678,VALID,0,VALID,23.2329,VALID,67,VALID,0.552734,
2012-06-11, 03:15:04,VALID,999.003,VALID,0,VALID,95.6525,VALID,0,VALID,23.2134,VALID,80,VALID,0.491797,
2012-06-11, 03:16:04,VALID,998.961,VALID,0,VALID,95.6525,VALID,0,VALID,23.2134,VALID,81,VALID,0.740234,
2012-06-11, 03:17:04,VALID,998.92,VALID,0,VALID,95.622,VALID,0,VALID,23.1939,VALID,57,VALID,0.759375,
2012-06-11, 03:18:04,VALID,998.919,VALID,0,VALID,95.6373,VALID,0,VALID,23.1939,VALID,58,VALID,0.744922,
2012-06-11, 03:19:04,VALID,998.933,VALID,0,VALID,95.6525,VALID,0,VALID,23.1744,VALID,41,VALID,0.689062,
2012-06-11, 03:20:04,VALID,998.928,VALID,0,VALID,95.6831,VALID,0,VALID,23.1354,VALID,32,VALID,0.721875,
2012-06-11, 03:21:04,VALID,998.918,VALID,0,VALID,95.6678,VALID,0,VALID,23.1159,VALID,32,VALID,0.589844,
2012-06-11, 03:22:04,VALID,998.864,VALID,0,VALID,95.6983,VALID,0,VALID,23.0769,VALID,32,VALID,0.573047,
2012-06-11, 03:23:04,VALID,998.867,VALID,0,VALID,95.7136,VALID,0,VALID,23.0573,VALID,32,VALID,0.423828,
2012-06-11, 03:24:04,VALID,998.87,VALID,0,VALID,95.6678,VALID,0,VALID,23.0378,VALID,32,VALID,0.200391,
2012-06-11, 03:25:04,VALID,998.851,VALID,0,VALID,95.6525,VALID,0,VALID,23.0573,VALID,32,VALID,0.0234375,
2012-06-11, 03:26:04,VALID,998.832,VALID,0,VALID,95.6602,VALID,0,VALID,23.0378,VALID,32,VALID,0,
2012-06-11, 03:27:04,VALID,998.848,VALID,0,VALID,95.6449,VALID,0,VALID,23.0378,VALID,32,VALID,0,
2012-06-11, 03:28:04,VALID,998.823,VALID,0,VALID,95.6525,VALID,0,VALID,23.0573,VALID,32,VALID,0,
2012-06-11, 03:29:04,VALID,998.829,VALID,0,VALID,95.6297,VALID,0,VALID,23.0361,VALID,32,VALID,0,
2012-06-11, 03:30:04,VALID,998.831,VALID,0,VALID,95.6144,VALID,0,VALID,23.0361,VALID,32,VALID,0,
2012-06-11, 03:31:04,VALID,998.795,VALID,0,VALID,95.6068,VALID,0,VALID,23.0769,VALID,32,VALID,0,
2012-06-11, 03:32:04,VALID,998.836,VALID,0,VALID,95.622,VALID,0,VALID,23.0573,VALID,32,VALID,0,
2012-06-11, 03:33:04,VALID,998.839,VALID,0,VALID,95.622,VALID,0,VALID,23.0573,VALID,32,VALID,0.426953,
2012-06-11, 03:34:04,VALID,998.811,VALID,0,VALID,95.5991,VALID,0,VALID,23.0769,VALID,32,VALID,0.319531,
2012-06-11, 03:35:04,VALID,998.818,VALID,0,VALID,95.6068,VALID,0,VALID,23.0573,VALID,32,VALID,0.457031,
2012-06-11, 03:36:04,VALID,998.817,VALID,0,VALID,95.6144,VALID,0,VALID,23.0378,VALID,32,VALID,0.307422,
2012-06-11, 03:37:04,VALID,998.802,VALID,0,VALID,95.6144,VALID,0,VALID,23.0378,VALID,32,VALID,0.283203,
2012-06-11, 03:38:04,VALID,998.816,VALID,0,VALID,95.6144,VALID,0,VALID,23.0378,VALID,32,VALID,0.3125,
2012-06-11, 03:39:04,VALID,998.767,VALID,0,VALID,95.5991,VALID,0,VALID,23.0183,VALID,32,VALID,0.330859,
2012-06-11, 03:40:04,VALID,998.747,VALID,0,VALID,95.6068,VALID,0,VALID,23.0378,VALID,32,VALID,0.329297,
2012-06-11, 03:41:04,VALID,998.763,VALID,0,VALID,95.5686,VALID,0,VALID,23.0573,VALID,32,VALID,0.269141,
2012-06-11, 03:42:04,VALID,998.736,VALID,0,VALID,95.5686,VALID,0,VALID,23.0573,VALID,32,VALID,0.277734,
2012-06-11, 03:43:04,VALID,998.743,VALID,0,VALID,95.5457,VALID,0,VALID,23.0573,VALID,32,VALID,0.438281,
2012-06-11, 03:44:04,VALID,998.741,VALID,0,VALID,95.5991,VALID,0,VALID,23.0378,VALID,32,VALID,0.439063,
2012-06-11, 03:45:04,VALID,998.762,VALID,0,VALID,95.5839,VALID,0,VALID,23.0183,VALID,32,VALID,0.596094,
2012-06-11, 03:46:04,VALID,998.784,VALID,0,VALID,95.6068,VALID,0,VALID,22.9988,VALID,32,VALID,0.851172,
2012-06-11, 03:47:04,VALID,998.766,VALID,0,VALID,95.5991,VALID,0,VALID,22.9988,VALID,33,VALID,0.773828,